date,time,water_lv
2017-08-01,00:00:00,53.6
2017-08-01,00:10:00,53.6
2017-08-01,00:20:00,53.59
2017-08-01,00:30:00,53.58
2017-08-01,00:40:00,53.57
2017-08-01,00:50:00,53.56
2017-08-01,01:00:00,53.55
2017-08-01,01:10:00,53.54
2017-08-01,01:20:00,53.53
2017-08-01,01:30:00,53.52
2017-08-01,01:40:00,53.51
2017-08-01,01:50:00,53.5
2017-08-01,02:00:00,53.49
2017-08-01,02:10:00,53.48
2017-08-01,02:20:00,53.48
2017-08-01,02:30:00,53.47
2017-08-01,02:40:00,53.46
2017-08-01,02:50:00,53.45
2017-08-01,03:00:00,53.45
2017-08-01,03:10:00,53.44
2017-08-01,03:20:00,53.43
2017-08-01,03:30:00,53.42
2017-08-01,03:40:00,53.41
2017-08-01,03:50:00,53.4
2017-08-01,04:00:00,53.39
2017-08-01,04:10:00,53.39
2017-08-01,04:20:00,53.38
2017-08-01,04:30:00,53.37
2017-08-01,04:40:00,53.36
2017-08-01,04:50:00,53.35
2017-08-01,05:00:00,53.34
2017-08-01,05:10:00,53.33
2017-08-01,05:20:00,53.33
2017-08-01,05:30:00,53.32
2017-08-01,05:40:00,53.31
2017-08-01,05:50:00,53.3
2017-08-01,06:00:00,53.3
2017-08-01,06:10:00,53.29
2017-08-01,06:20:00,53.28
2017-08-01,06:30:00,53.27
2017-08-01,06:40:00,53.27
2017-08-01,06:50:00,53.26
2017-08-01,07:00:00,53.25
2017-08-01,07:10:00,53.24
2017-08-01,07:20:00,53.23
2017-08-01,07:30:00,53.2
2017-08-01,07:40:00,53.2
2017-08-01,07:50:00,53.2
2017-08-01,08:00:00,53.18
2017-08-01,08:10:00,53.17
2017-08-01,08:20:00,53.15
2017-08-01,08:30:00,53.14
2017-08-01,08:40:00,53.13
2017-08-01,08:50:00,53.12
2017-08-01,09:00:00,53.1
2017-08-01,09:10:00,53.1
2017-08-01,09:20:00,53.09
2017-08-01,09:30:00,53.08
2017-08-01,09:40:00,53.07
2017-08-01,09:50:00,53.06
2017-08-01,10:00:00,53.05
2017-08-01,10:10:00,53.04
2017-08-01,10:20:00,53.03
2017-08-01,10:30:00,53.02
2017-08-01,10:40:00,53
2017-08-01,10:50:00,52.99
2017-08-01,11:00:00,52.99
2017-08-01,11:10:00,52.97
2017-08-01,11:20:00,52.96
2017-08-01,11:30:00,52.95
2017-08-01,11:40:00,52.93
2017-08-01,11:50:00,52.92
2017-08-01,12:00:00,52.91
2017-08-01,12:10:00,52.89
2017-08-01,12:20:00,52.89
2017-08-01,12:30:00,52.88
2017-08-01,12:40:00,52.86
2017-08-01,12:50:00,52.85
2017-08-01,13:00:00,52.81
2017-08-01,13:10:00,52.81
2017-08-01,13:20:00,52.8
2017-08-01,13:30:00,52.79
2017-08-01,13:40:00,52.78
2017-08-01,13:50:00,52.77
2017-08-01,14:00:00,52.76
2017-08-01,14:10:00,52.74
2017-08-01,14:20:00,52.73
2017-08-01,14:30:00,52.72
2017-08-01,14:40:00,52.7
2017-08-01,14:50:00,52.69
2017-08-01,15:00:00,52.68
2017-08-01,15:10:00,52.66
2017-08-01,15:20:00,52.65
2017-08-01,15:30:00,52.65
2017-08-01,15:40:00,52.62
2017-08-01,15:50:00,52.62
2017-08-01,16:00:00,52.61
2017-08-01,16:10:00,52.6
2017-08-01,16:20:00,52.59
2017-08-01,16:30:00,52.59
2017-08-01,16:40:00,52.56
2017-08-01,16:50:00,52.56
2017-08-01,17:00:00,52.57
2017-08-01,17:10:00,52.55
2017-08-01,17:20:00,52.53
2017-08-01,17:30:00,52.53
2017-08-01,17:40:00,52.52
2017-08-01,17:50:00,52.51
2017-08-01,18:00:00,52.51
2017-08-01,18:10:00,52.51
2017-08-01,18:20:00,52.5
2017-08-01,18:30:00,52.49
2017-08-01,18:40:00,52.48
2017-08-01,18:50:00,52.47
2017-08-01,19:00:00,52.46
2017-08-01,19:10:00,52.44
2017-08-01,19:20:00,52.43
2017-08-01,19:30:00,52.43
2017-08-01,19:40:00,52.41
2017-08-01,19:50:00,52.4
2017-08-01,20:00:00,52.39
2017-08-01,20:10:00,52.37
2017-08-01,20:20:00,52.36
2017-08-01,20:30:00,52.35
2017-08-01,20:40:00,52.33
2017-08-01,20:50:00,52.32
2017-08-01,21:00:00,52.31
2017-08-01,21:10:00,52.3
2017-08-01,21:20:00,52.29
2017-08-01,21:30:00,52.28
2017-08-01,21:40:00,52.27
2017-08-01,21:50:00,52.26
2017-08-01,22:00:00,52.25
2017-08-01,22:10:00,52.23
2017-08-01,22:20:00,52.22
2017-08-01,22:30:00,52.21
2017-08-01,22:40:00,52.2
2017-08-01,22:50:00,52.19
2017-08-01,23:00:00,52.18
2017-08-01,23:10:00,52.18
2017-08-01,23:20:00,52.17
2017-08-01,23:30:00,52.16
2017-08-01,23:40:00,52.15
2017-08-01,23:50:00,52.14
2017-08-02,00:00:00,52.13
2017-08-02,00:10:00,52.12
2017-08-02,00:20:00,52.11
2017-08-02,00:30:00,52.1
2017-08-02,00:40:00,52.08
2017-08-02,00:50:00,52.08
2017-08-02,01:00:00,52.07
2017-08-02,01:10:00,52.07
2017-08-02,01:20:00,52.06
2017-08-02,01:30:00,52.05
2017-08-02,01:40:00,52.04
2017-08-02,01:50:00,52.03
2017-08-02,02:00:00,52.02
2017-08-02,02:10:00,52.01
2017-08-02,02:20:00,52
2017-08-02,02:30:00,52
2017-08-02,02:40:00,51.99
2017-08-02,02:50:00,51.98
2017-08-02,03:00:00,51.97
2017-08-02,03:10:00,51.96
2017-08-02,03:20:00,51.96
2017-08-02,03:30:00,51.95
2017-08-02,03:40:00,51.95
2017-08-02,03:50:00,51.94
2017-08-02,04:00:00,51.93
2017-08-02,04:10:00,51.92
2017-08-02,04:20:00,51.92
2017-08-02,04:30:00,51.91
2017-08-02,04:40:00,51.9
2017-08-02,04:50:00,51.9
2017-08-02,05:00:00,51.89
2017-08-02,05:10:00,51.88
2017-08-02,05:20:00,51.88
2017-08-02,05:30:00,51.87
2017-08-02,05:40:00,51.87
2017-08-02,05:50:00,51.86
2017-08-02,06:00:00,51.86
2017-08-02,06:10:00,51.85
2017-08-02,06:20:00,51.85
2017-08-02,06:30:00,51.84
2017-08-02,06:40:00,51.84
2017-08-02,06:50:00,51.83
2017-08-02,07:00:00,51.83
2017-08-02,07:10:00,51.82
2017-08-02,07:20:00,51.81
2017-08-02,07:30:00,51.8
2017-08-02,07:40:00,51.79
2017-08-02,07:50:00,51.77
2017-08-02,08:00:00,51.76
2017-08-02,08:10:00,51.75
2017-08-02,08:20:00,51.73
2017-08-02,08:30:00,51.71
2017-08-02,08:40:00,51.7
2017-08-02,08:50:00,51.69
2017-08-02,09:00:00,51.67
2017-08-02,09:10:00,51.66
2017-08-02,09:20:00,51.64
2017-08-02,09:30:00,51.63
2017-08-02,09:40:00,51.62
2017-08-02,09:50:00,51.6
2017-08-02,10:00:00,51.58
2017-08-02,10:10:00,51.58
2017-08-02,10:20:00,51.57
2017-08-02,10:30:00,51.54
2017-08-02,10:40:00,51.54
2017-08-02,10:50:00,51.53
2017-08-02,11:00:00,51.51
2017-08-02,11:10:00,51.5
2017-08-02,11:20:00,51.49
2017-08-02,11:30:00,51.48
2017-08-02,11:40:00,51.47
2017-08-02,11:50:00,51.46
2017-08-02,12:00:00,51.44
2017-08-02,12:10:00,51.43
2017-08-02,12:20:00,51.42
2017-08-02,12:30:00,51.41
2017-08-02,12:40:00,51.4
2017-08-02,12:50:00,51.39
2017-08-02,13:00:00,51.39
2017-08-02,13:10:00,51.37
2017-08-02,13:20:00,51.37
2017-08-02,13:30:00,51.37
2017-08-02,13:40:00,51.35
2017-08-02,13:50:00,51.34
2017-08-02,14:00:00,51.34
2017-08-02,14:10:00,51.34
2017-08-02,14:20:00,51.32
2017-08-02,14:30:00,51.3
2017-08-02,14:40:00,51.31
2017-08-02,14:50:00,51.31
2017-08-02,15:00:00,51.3
2017-08-02,15:10:00,51.3
2017-08-02,15:20:00,51.29
2017-08-02,15:30:00,51.28
2017-08-02,15:40:00,51.28
2017-08-02,15:50:00,51.27
2017-08-02,16:00:00,51.26
2017-08-02,16:10:00,51.27
2017-08-02,16:20:00,51.25
2017-08-02,16:30:00,51.25
2017-08-02,16:40:00,51.24
2017-08-02,16:50:00,51.24
2017-08-02,17:00:00,51.24
2017-08-02,17:10:00,51.24
2017-08-02,17:20:00,51.23
2017-08-02,17:30:00,51.23
2017-08-02,17:40:00,51.23
2017-08-02,17:50:00,51.22
2017-08-02,18:00:00,51.22
2017-08-02,18:10:00,51.21
2017-08-02,18:20:00,51.21
2017-08-02,18:30:00,51.21
2017-08-02,18:40:00,51.2
2017-08-02,18:50:00,51.2
2017-08-02,19:00:00,51.19
2017-08-02,19:10:00,51.18
2017-08-02,19:20:00,51.18
2017-08-02,19:30:00,51.19
2017-08-02,19:40:00,51.18
2017-08-02,19:50:00,51.18
2017-08-02,20:00:00,51.19
2017-08-02,20:10:00,51.18
2017-08-02,20:20:00,51.17
2017-08-02,20:30:00,51.18
2017-08-02,20:40:00,51.17
2017-08-02,20:50:00,51.17
2017-08-02,21:00:00,51.17
2017-08-02,21:10:00,51.17
2017-08-02,21:20:00,51.17
2017-08-02,21:30:00,51.17
2017-08-02,21:40:00,51.17
2017-08-02,21:50:00,51.17
2017-08-02,22:00:00,51.17
2017-08-02,22:10:00,51.17
2017-08-02,22:20:00,51.17
2017-08-02,22:30:00,51.16
2017-08-02,22:40:00,51.17
2017-08-02,22:50:00,51.16
2017-08-02,23:00:00,51.17
2017-08-02,23:10:00,51.16
2017-08-02,23:20:00,51.16
2017-08-02,23:30:00,51.16
2017-08-02,23:40:00,51.16
2017-08-02,23:50:00,51.16
2017-08-03,00:00:00,51.16
2017-08-03,00:10:00,51.16
2017-08-03,00:20:00,51.16
2017-08-03,00:30:00,51.16
2017-08-03,00:40:00,51.16
2017-08-03,00:50:00,51.16
2017-08-03,01:00:00,51.16
2017-08-03,01:10:00,51.16
2017-08-03,01:20:00,51.16
2017-08-03,01:30:00,51.16
2017-08-03,01:40:00,51.16
2017-08-03,01:50:00,51.16
2017-08-03,02:00:00,51.16
2017-08-03,02:10:00,51.16
2017-08-03,02:20:00,51.16
2017-08-03,02:30:00,51.16
2017-08-03,02:40:00,51.16
2017-08-03,02:50:00,51.16
2017-08-03,03:00:00,51.16
2017-08-03,03:10:00,51.16
2017-08-03,03:20:00,51.17
2017-08-03,03:30:00,51.17
2017-08-03,03:40:00,51.17
2017-08-03,03:50:00,51.17
2017-08-03,04:00:00,51.17
2017-08-03,04:10:00,51.17
2017-08-03,04:20:00,51.17
2017-08-03,04:30:00,51.17
2017-08-03,04:40:00,51.17
2017-08-03,04:50:00,51.18
2017-08-03,05:00:00,51.18
2017-08-03,05:10:00,51.18
2017-08-03,05:20:00,51.18
2017-08-03,05:30:00,51.18
2017-08-03,05:40:00,51.18
2017-08-03,05:50:00,51.18
2017-08-03,06:00:00,51.18
2017-08-03,06:10:00,51.18
2017-08-03,06:20:00,51.18
2017-08-03,06:30:00,51.19
2017-08-03,06:40:00,51.19
2017-08-03,06:50:00,51.19
2017-08-03,07:00:00,51.19
2017-08-03,07:10:00,51.19
2017-08-03,07:20:00,51.19
2017-08-03,07:30:00,51.19
2017-08-03,07:40:00,51.19
2017-08-03,07:50:00,51.19
2017-08-03,08:00:00,51.19
2017-08-03,08:10:00,51.19
2017-08-03,08:20:00,51.19
2017-08-03,08:30:00,51.19
2017-08-03,08:40:00,51.19
2017-08-03,08:50:00,51.19
2017-08-03,09:00:00,51.19
2017-08-03,09:10:00,51.19
2017-08-03,09:20:00,51.18
2017-08-03,09:30:00,51.2
2017-08-03,09:40:00,51.2
2017-08-03,09:50:00,51.2
2017-08-03,10:00:00,51.2
2017-08-03,10:10:00,51.19
2017-08-03,10:20:00,51.2
2017-08-03,10:30:00,51.19
2017-08-03,10:40:00,51.2
2017-08-03,10:50:00,51.19
2017-08-03,11:00:00,51.2
2017-08-03,11:10:00,51.21
2017-08-03,11:20:00,51.2
2017-08-03,11:30:00,51.2
2017-08-03,11:40:00,51.2
2017-08-03,11:50:00,51.2
2017-08-03,12:00:00,51.21
2017-08-03,12:10:00,51.21
2017-08-03,12:20:00,51.21
2017-08-03,12:30:00,51.21
2017-08-03,12:40:00,51.21
2017-08-03,12:50:00,51.21
2017-08-03,13:00:00,51.2
2017-08-03,13:10:00,51.22
2017-08-03,13:20:00,51.22
2017-08-03,13:30:00,51.22
2017-08-03,13:40:00,51.22
2017-08-03,13:50:00,51.21
2017-08-03,14:00:00,51.22
2017-08-03,14:10:00,51.22
2017-08-03,14:20:00,51.22
2017-08-03,14:30:00,51.21
2017-08-03,14:40:00,51.22
2017-08-03,14:50:00,51.22
2017-08-03,15:00:00,51.22
2017-08-03,15:10:00,51.22
2017-08-03,15:20:00,51.22
2017-08-03,15:30:00,51.22
2017-08-03,15:40:00,51.22
2017-08-03,15:50:00,51.22
2017-08-03,16:00:00,51.22
2017-08-03,16:10:00,51.23
2017-08-03,16:20:00,51.23
2017-08-03,16:30:00,51.23
2017-08-03,16:40:00,51.22
2017-08-03,16:50:00,51.22
2017-08-03,17:00:00,51.23
2017-08-03,17:10:00,51.23
2017-08-03,17:20:00,51.23
2017-08-03,17:30:00,51.23
2017-08-03,17:40:00,51.23
2017-08-03,17:50:00,51.24
2017-08-03,18:00:00,51.24
2017-08-03,18:10:00,51.23
2017-08-03,18:20:00,51.24
2017-08-03,18:30:00,51.24
2017-08-03,18:40:00,51.24
2017-08-03,18:50:00,51.23
2017-08-03,19:00:00,51.23
2017-08-03,19:10:00,51.24
2017-08-03,19:20:00,51.23
2017-08-03,19:30:00,51.23
2017-08-03,19:40:00,51.24
2017-08-03,19:50:00,51.23
2017-08-03,20:00:00,51.24
2017-08-03,20:10:00,51.24
2017-08-03,20:20:00,51.23
2017-08-03,20:30:00,51.24
2017-08-03,20:40:00,51.23
2017-08-03,20:50:00,51.24
2017-08-03,21:00:00,51.23
2017-08-03,21:10:00,51.23
2017-08-03,21:20:00,51.23
2017-08-03,21:30:00,51.23
2017-08-03,21:40:00,51.23
2017-08-03,21:50:00,51.23
2017-08-03,22:00:00,51.23
2017-08-03,22:10:00,51.23
2017-08-03,22:20:00,51.23
2017-08-03,22:30:00,51.22
2017-08-03,22:40:00,51.23
2017-08-03,22:50:00,51.23
2017-08-03,23:00:00,51.23
2017-08-03,23:10:00,51.23
2017-08-03,23:20:00,51.23
2017-08-03,23:30:00,51.22
2017-08-03,23:40:00,51.23
2017-08-03,23:50:00,51.23
2017-08-04,00:00:00,51.23
2017-08-04,00:10:00,51.23
2017-08-04,00:20:00,51.22
2017-08-04,00:30:00,51.23
2017-08-04,00:40:00,51.22
2017-08-04,00:50:00,51.22
2017-08-04,01:00:00,51.22
2017-08-04,01:10:00,51.22
2017-08-04,01:20:00,51.22
2017-08-04,01:30:00,51.22
2017-08-04,01:40:00,51.22
2017-08-04,01:50:00,51.22
2017-08-04,02:00:00,51.22
2017-08-04,02:10:00,51.22
2017-08-04,02:20:00,51.22
2017-08-04,02:30:00,51.21
2017-08-04,02:40:00,51.21
2017-08-04,02:50:00,51.2
2017-08-04,03:00:00,51.19
2017-08-04,03:10:00,51.18
2017-08-04,03:20:00,51.16
2017-08-04,03:30:00,51.14
2017-08-04,03:40:00,51.13
2017-08-04,03:50:00,51.1
2017-08-04,04:00:00,51.08
2017-08-04,04:10:00,51.06
2017-08-04,04:20:00,51.03
2017-08-04,04:30:00,51
2017-08-04,04:40:00,50.98
2017-08-04,04:50:00,50.95
2017-08-04,05:00:00,50.92
2017-08-04,05:10:00,50.89
2017-08-04,05:20:00,50.86
2017-08-04,05:30:00,50.84
2017-08-04,05:40:00,50.81
2017-08-04,05:50:00,50.78
2017-08-04,06:00:00,50.75
2017-08-04,06:10:00,50.72
2017-08-04,06:20:00,50.69
2017-08-04,06:30:00,50.67
2017-08-04,06:40:00,50.64
2017-08-04,06:50:00,50.61
2017-08-04,07:00:00,50.59
2017-08-04,07:10:00,50.56
2017-08-04,07:20:00,50.53
2017-08-04,07:30:00,50.51
2017-08-04,07:40:00,50.48
2017-08-04,07:50:00,50.46
2017-08-04,08:00:00,50.43
2017-08-04,08:10:00,50.41
2017-08-04,08:20:00,50.38
2017-08-04,08:30:00,50.36
2017-08-04,08:40:00,50.34
2017-08-04,08:50:00,50.32
2017-08-04,09:00:00,50.3
2017-08-04,09:10:00,50.28
2017-08-04,09:20:00,50.27
2017-08-04,09:30:00,50.25
2017-08-04,09:40:00,50.24
2017-08-04,09:50:00,50.22
2017-08-04,10:00:00,50.22
2017-08-04,10:10:00,50.21
2017-08-04,10:20:00,50.21
2017-08-04,10:30:00,50.21
2017-08-04,10:40:00,50.21
2017-08-04,10:50:00,50.22
2017-08-04,11:00:00,50.23
2017-08-04,11:10:00,50.24
2017-08-04,11:20:00,50.26
2017-08-04,11:30:00,50.26
2017-08-04,11:40:00,50.28
2017-08-04,11:50:00,50.29
2017-08-04,12:00:00,50.32
2017-08-04,12:10:00,50.34
2017-08-04,12:20:00,50.35
2017-08-04,12:30:00,50.38
2017-08-04,12:40:00,50.39
2017-08-04,12:50:00,50.41
2017-08-04,13:00:00,50.43
2017-08-04,13:10:00,50.45
2017-08-04,13:20:00,50.46
2017-08-04,13:30:00,50.48
2017-08-04,13:40:00,50.5
2017-08-04,13:50:00,50.51
2017-08-04,14:00:00,50.53
2017-08-04,14:10:00,50.54
2017-08-04,14:20:00,50.56
2017-08-04,14:30:00,50.57
2017-08-04,14:40:00,50.58
2017-08-04,14:50:00,50.6
2017-08-04,15:00:00,50.61
2017-08-04,15:10:00,50.62
2017-08-04,15:20:00,50.63
2017-08-04,15:30:00,50.64
2017-08-04,15:40:00,50.65
2017-08-04,15:50:00,50.66
2017-08-04,16:00:00,50.66
2017-08-04,16:10:00,50.66
2017-08-04,16:20:00,50.68
2017-08-04,16:30:00,50.71
2017-08-04,16:40:00,50.71
2017-08-04,16:50:00,50.72
2017-08-04,17:00:00,50.73
2017-08-04,17:10:00,50.73
2017-08-04,17:20:00,50.74
2017-08-04,17:30:00,50.75
2017-08-04,17:40:00,50.75
2017-08-04,17:50:00,50.76
2017-08-04,18:00:00,50.77
2017-08-04,18:10:00,50.77
2017-08-04,18:20:00,50.78
2017-08-04,18:30:00,50.78
2017-08-04,18:40:00,50.79
2017-08-04,18:50:00,50.8
2017-08-04,19:00:00,50.8
2017-08-04,19:10:00,50.8
2017-08-04,19:20:00,50.8
2017-08-04,19:30:00,50.81
2017-08-04,19:40:00,50.82
2017-08-04,19:50:00,50.82
2017-08-04,20:00:00,50.83
2017-08-04,20:10:00,50.83
2017-08-04,20:20:00,50.83
2017-08-04,20:30:00,50.83
2017-08-04,20:40:00,50.84
2017-08-04,20:50:00,50.84
2017-08-04,21:00:00,50.84
2017-08-04,21:10:00,50.85
2017-08-04,21:20:00,50.85
2017-08-04,21:30:00,50.85
2017-08-04,21:40:00,50.86
2017-08-04,21:50:00,50.85
2017-08-04,22:00:00,50.86
2017-08-04,22:10:00,50.86
2017-08-04,22:20:00,50.86
2017-08-04,22:30:00,50.87
2017-08-04,22:40:00,50.87
2017-08-04,22:50:00,50.87
2017-08-04,23:00:00,50.87
2017-08-04,23:10:00,50.87
2017-08-04,23:20:00,50.87
2017-08-04,23:30:00,50.88
2017-08-04,23:40:00,50.88
2017-08-04,23:50:00,50.88
2017-08-05,00:00:00,50.88
2017-08-05,00:10:00,50.88
2017-08-05,00:20:00,50.88
2017-08-05,00:30:00,50.88
2017-08-05,00:40:00,50.88
2017-08-05,00:50:00,50.87
2017-08-05,01:00:00,50.87
2017-08-05,01:10:00,50.87
2017-08-05,01:20:00,50.87
2017-08-05,01:30:00,50.87
2017-08-05,01:40:00,50.87
2017-08-05,01:50:00,50.86
2017-08-05,02:00:00,50.86
2017-08-05,02:10:00,50.86
2017-08-05,02:20:00,50.86
2017-08-05,02:30:00,50.85
2017-08-05,02:40:00,50.85
2017-08-05,02:50:00,50.85
2017-08-05,03:00:00,50.85
2017-08-05,03:10:00,50.85
2017-08-05,03:20:00,50.84
2017-08-05,03:30:00,50.84
2017-08-05,03:40:00,50.84
2017-08-05,03:50:00,50.84
2017-08-05,04:00:00,50.83
2017-08-05,04:10:00,50.83
2017-08-05,04:20:00,50.83
2017-08-05,04:30:00,50.82
2017-08-05,04:40:00,50.82
2017-08-05,04:50:00,50.82
2017-08-05,05:00:00,50.82
2017-08-05,05:10:00,50.82
2017-08-05,05:20:00,50.81
2017-08-05,05:30:00,50.81
2017-08-05,05:40:00,50.81
2017-08-05,05:50:00,50.81
2017-08-05,06:00:00,50.81
2017-08-05,06:10:00,50.8
2017-08-05,06:20:00,50.8
2017-08-05,06:30:00,50.8
2017-08-05,06:40:00,50.8
2017-08-05,06:50:00,50.8
2017-08-05,07:00:00,50.79
2017-08-05,07:10:00,50.79
2017-08-05,07:20:00,50.79
2017-08-05,07:30:00,50.79
2017-08-05,07:40:00,50.78
2017-08-05,07:50:00,50.78
2017-08-05,08:00:00,50.78
2017-08-05,08:10:00,50.78
2017-08-05,08:20:00,50.77
2017-08-05,08:30:00,50.77
2017-08-05,08:40:00,50.77
2017-08-05,08:50:00,50.76
2017-08-05,09:00:00,50.76
2017-08-05,09:10:00,50.75
2017-08-05,09:20:00,50.75
2017-08-05,09:30:00,50.74
2017-08-05,09:40:00,50.74
2017-08-05,09:50:00,50.74
2017-08-05,10:00:00,50.74
2017-08-05,10:10:00,50.73
2017-08-05,10:20:00,50.73
2017-08-05,10:30:00,50.73
2017-08-05,10:40:00,50.72
2017-08-05,10:50:00,50.72
2017-08-05,11:00:00,50.71
2017-08-05,11:10:00,50.71
2017-08-05,11:20:00,50.71
2017-08-05,11:30:00,50.7
2017-08-05,11:40:00,50.69
2017-08-05,11:50:00,50.69
2017-08-05,12:00:00,50.69
2017-08-05,12:10:00,50.68
2017-08-05,12:20:00,50.69
2017-08-05,12:30:00,50.67
2017-08-05,12:40:00,50.68
2017-08-05,12:50:00,50.66
2017-08-05,13:00:00,50.67
2017-08-05,13:10:00,50.66
2017-08-05,13:20:00,50.67
2017-08-05,13:30:00,50.66
2017-08-05,13:40:00,50.66
2017-08-05,13:50:00,50.65
2017-08-05,14:00:00,50.66
2017-08-05,14:10:00,50.66
2017-08-05,14:20:00,50.65
2017-08-05,14:30:00,50.65
2017-08-05,14:40:00,50.65
2017-08-05,14:50:00,50.64
2017-08-05,15:00:00,50.64
2017-08-05,15:10:00,50.64
2017-08-05,15:20:00,50.62
2017-08-05,15:30:00,50.62
2017-08-05,15:40:00,50.63
2017-08-05,15:50:00,50.64
2017-08-05,16:00:00,50.64
2017-08-05,16:10:00,50.63
2017-08-05,16:20:00,50.63
2017-08-05,16:30:00,50.63
2017-08-05,16:40:00,50.63
2017-08-05,16:50:00,50.63
2017-08-05,17:00:00,50.62
2017-08-05,17:10:00,50.63
2017-08-05,17:20:00,50.62
2017-08-05,17:30:00,50.62
2017-08-05,17:40:00,50.62
2017-08-05,17:50:00,50.62
2017-08-05,18:00:00,50.62
2017-08-05,18:10:00,50.61
2017-08-05,18:20:00,50.61
2017-08-05,18:30:00,50.61
2017-08-05,18:40:00,50.61
2017-08-05,18:50:00,50.61
2017-08-05,19:00:00,50.6
2017-08-05,19:10:00,50.6
2017-08-05,19:20:00,50.6
2017-08-05,19:30:00,50.61
2017-08-05,19:40:00,50.61
2017-08-05,19:50:00,50.61
2017-08-05,20:00:00,50.6
2017-08-05,20:10:00,50.6
2017-08-05,20:20:00,50.6
2017-08-05,20:30:00,50.6
2017-08-05,20:40:00,50.6
2017-08-05,20:50:00,50.6
2017-08-05,21:00:00,50.6
2017-08-05,21:10:00,50.59
2017-08-05,21:20:00,50.59
2017-08-05,21:30:00,50.6
2017-08-05,21:40:00,50.59
2017-08-05,21:50:00,50.59
2017-08-05,22:00:00,50.59
2017-08-05,22:10:00,50.59
2017-08-05,22:20:00,50.59
2017-08-05,22:30:00,50.59
2017-08-05,22:40:00,50.58
2017-08-05,22:50:00,50.58
2017-08-05,23:00:00,50.58
2017-08-05,23:10:00,50.58
2017-08-05,23:20:00,50.58
2017-08-05,23:30:00,50.58
2017-08-05,23:40:00,50.58
2017-08-05,23:50:00,50.58
2017-08-06,00:00:00,50.58
2017-08-06,00:10:00,50.57
2017-08-06,00:20:00,50.58
2017-08-06,00:30:00,50.57
2017-08-06,00:40:00,50.57
2017-08-06,00:50:00,50.56
2017-08-06,01:00:00,50.57
2017-08-06,01:10:00,50.57
2017-08-06,01:20:00,50.57
2017-08-06,01:30:00,50.59
2017-08-06,01:40:00,50.58
2017-08-06,01:50:00,50.58
2017-08-06,02:00:00,50.58
2017-08-06,02:10:00,50.58
2017-08-06,02:20:00,50.58
2017-08-06,02:30:00,50.58
2017-08-06,02:40:00,50.58
2017-08-06,02:50:00,50.58
2017-08-06,03:00:00,50.57
2017-08-06,03:10:00,50.58
2017-08-06,03:20:00,50.58
2017-08-06,03:30:00,50.58
2017-08-06,03:40:00,50.57
2017-08-06,03:50:00,50.57
2017-08-06,04:00:00,50.57
2017-08-06,04:10:00,50.57
2017-08-06,04:20:00,50.57
2017-08-06,04:30:00,50.58
2017-08-06,04:40:00,50.57
2017-08-06,04:50:00,50.57
2017-08-06,05:00:00,50.57
2017-08-06,05:10:00,50.57
2017-08-06,05:20:00,50.57
2017-08-06,05:30:00,50.56
2017-08-06,05:40:00,50.56
2017-08-06,05:50:00,50.57
2017-08-06,06:00:00,50.57
2017-08-06,06:10:00,50.56
2017-08-06,06:20:00,50.56
2017-08-06,06:30:00,50.56
2017-08-06,06:40:00,50.56
2017-08-06,06:50:00,50.56
2017-08-06,07:00:00,50.56
2017-08-06,07:10:00,50.56
2017-08-06,07:20:00,50.56
2017-08-06,07:30:00,50.56
2017-08-06,07:40:00,50.56
2017-08-06,07:50:00,50.56
2017-08-06,08:00:00,50.56
2017-08-06,08:10:00,50.55
2017-08-06,08:20:00,50.55
2017-08-06,08:30:00,50.55
2017-08-06,08:40:00,50.55
2017-08-06,08:50:00,50.55
2017-08-06,09:00:00,50.55
2017-08-06,09:10:00,50.55
2017-08-06,09:20:00,50.55
2017-08-06,09:30:00,50.54
2017-08-06,09:40:00,50.54
2017-08-06,09:50:00,50.54
2017-08-06,10:00:00,50.54
2017-08-06,10:10:00,50.54
2017-08-06,10:20:00,50.54
2017-08-06,10:30:00,50.54
2017-08-06,10:40:00,50.54
2017-08-06,10:50:00,50.54
2017-08-06,11:00:00,50.53
2017-08-06,11:10:00,50.53
2017-08-06,11:20:00,50.53
2017-08-06,11:30:00,50.52
2017-08-06,11:40:00,50.52
2017-08-06,11:50:00,50.51
2017-08-06,12:00:00,50.51
2017-08-06,12:10:00,50.5
2017-08-06,12:20:00,50.51
2017-08-06,12:30:00,50.5
2017-08-06,12:40:00,50.49
2017-08-06,12:50:00,50.49
2017-08-06,13:00:00,50.48
2017-08-06,13:10:00,50.47
2017-08-06,13:20:00,50.47
2017-08-06,13:30:00,50.46
2017-08-06,13:40:00,50.46
2017-08-06,13:50:00,50.46
2017-08-06,14:00:00,50.45
2017-08-06,14:10:00,50.45
2017-08-06,14:20:00,50.44
2017-08-06,14:30:00,50.44
2017-08-06,14:40:00,50.44
2017-08-06,14:50:00,50.43
2017-08-06,15:00:00,50.43
2017-08-06,15:10:00,50.42
2017-08-06,15:20:00,50.41
2017-08-06,15:30:00,50.42
2017-08-06,15:40:00,50.41
2017-08-06,15:50:00,50.41
2017-08-06,16:00:00,50.4
2017-08-06,16:10:00,50.4
2017-08-06,16:20:00,50.4
2017-08-06,16:30:00,50.39
2017-08-06,16:40:00,50.39
2017-08-06,16:50:00,50.38
2017-08-06,17:00:00,50.38
2017-08-06,17:10:00,50.37
2017-08-06,17:20:00,50.37
2017-08-06,17:30:00,50.37
2017-08-06,17:40:00,50.37
2017-08-06,17:50:00,50.36
2017-08-06,18:00:00,50.36
2017-08-06,18:10:00,50.36
2017-08-06,18:20:00,50.36
2017-08-06,18:30:00,50.35
2017-08-06,18:40:00,50.35
2017-08-06,18:50:00,50.35
2017-08-06,19:00:00,50.34
2017-08-06,19:10:00,50.33
2017-08-06,19:20:00,50.33
2017-08-06,19:30:00,50.33
2017-08-06,19:40:00,50.34
2017-08-06,19:50:00,50.33
2017-08-06,20:00:00,50.33
2017-08-06,20:10:00,50.33
2017-08-06,20:20:00,50.33
2017-08-06,20:30:00,50.33
2017-08-06,20:40:00,50.32
2017-08-06,20:50:00,50.32
2017-08-06,21:00:00,50.31
2017-08-06,21:10:00,50.31
2017-08-06,21:20:00,50.31
2017-08-06,21:30:00,50.31
2017-08-06,21:40:00,50.31
2017-08-06,21:50:00,50.31
2017-08-06,22:00:00,50.31
2017-08-06,22:10:00,50.31
2017-08-06,22:20:00,50.31
2017-08-06,22:30:00,50.3
2017-08-06,22:40:00,50.3
2017-08-06,22:50:00,50.3
2017-08-06,23:00:00,50.3
2017-08-06,23:10:00,50.3
2017-08-06,23:20:00,50.3
2017-08-06,23:30:00,50.29
2017-08-06,23:40:00,50.29
2017-08-06,23:50:00,50.28
2017-08-07,00:00:00,50.29
2017-08-07,00:10:00,50.3
2017-08-07,00:20:00,50.32
2017-08-07,00:30:00,50.31
2017-08-07,00:40:00,50.32
2017-08-07,00:50:00,50.31
2017-08-07,01:00:00,50.31
2017-08-07,01:10:00,50.31
2017-08-07,01:20:00,50.31
2017-08-07,01:30:00,50.31
2017-08-07,01:40:00,50.31
2017-08-07,01:50:00,50.31
2017-08-07,02:00:00,50.3
2017-08-07,02:10:00,50.3
2017-08-07,02:20:00,50.3
2017-08-07,02:30:00,50.31
2017-08-07,02:40:00,50.3
2017-08-07,02:50:00,50.3
2017-08-07,03:00:00,50.3
2017-08-07,03:10:00,50.3
2017-08-07,03:20:00,50.3
2017-08-07,03:30:00,50.3
2017-08-07,03:40:00,50.29
2017-08-07,03:50:00,50.29
2017-08-07,04:00:00,50.29
2017-08-07,04:10:00,50.29
2017-08-07,04:20:00,50.28
2017-08-07,04:30:00,50.28
2017-08-07,04:40:00,50.28
2017-08-07,04:50:00,50.28
2017-08-07,05:00:00,50.28
2017-08-07,05:10:00,50.28
2017-08-07,05:20:00,50.28
2017-08-07,05:30:00,50.28
2017-08-07,05:40:00,50.28
2017-08-07,05:50:00,50.28
2017-08-07,06:00:00,50.27
2017-08-07,06:10:00,50.27
2017-08-07,06:20:00,50.27
2017-08-07,06:30:00,50.27
2017-08-07,06:40:00,50.27
2017-08-07,06:50:00,50.27
2017-08-07,07:00:00,50.27
2017-08-07,07:10:00,50.27
2017-08-07,07:20:00,50.27
2017-08-07,07:30:00,50.27
2017-08-07,07:40:00,50.27
2017-08-07,07:50:00,50.27
2017-08-07,08:00:00,50.26
2017-08-07,08:10:00,50.27
2017-08-07,08:20:00,50.26
2017-08-07,08:30:00,50.26
2017-08-07,08:40:00,50.26
2017-08-07,08:50:00,50.26
2017-08-07,09:00:00,50.26
2017-08-07,09:10:00,50.25
2017-08-07,09:20:00,50.25
2017-08-07,09:30:00,50.25
2017-08-07,09:40:00,50.25
2017-08-07,09:50:00,50.26
2017-08-07,10:00:00,50.25
2017-08-07,10:10:00,50.25